Flight Track Log - Related Links

Times and Time Zones

All times are in EDT time to prevent confusion due to time zone crossing. See the DAL6241 flight status page for this flight to view local times or setup timezone preferences in your user account.

Time Position Orientation Groundspeed Altitude Reporting Facility
EDT Latitude Longitude Course Direction KTS MPH feet Rate Location/Type
Mon 04:16:26 PM 39.0500 -84.6833 270° West 148 170 1,300  Level Cincinnati TRACON
Mon 04:17:50 PM 39.0500 -84.7667 270° West 213 245 3,800 2,000 Climbing Cincinnati TRACON
Mon 04:18:44 PM 39.0500 -84.8500 270° West 239 275 5,900 2,294 Climbing Cincinnati TRACON
Mon 04:19:32 PM 39.0833 -84.9000 311° West 268 308 7,700 2,077 Climbing Cincinnati TRACON
Mon 04:20:54 PM 39.1806 -84.8767 11° North 285 328 10,400 1,708 Climbing Indianapolis Center
Mon 04:21:56 PM 39.2533 -84.8011 39° Northeast 342 394 11,800 1,597 Climbing Indianapolis Center
Mon 04:22:58 PM 39.3247 -84.7064 46° Northeast 360 414 13,700 2,112 Climbing Indianapolis Center
Mon 04:24:01 PM 39.4128 -84.5897 46° Northeast 374 430 16,200 1,968 Climbing Indianapolis Center
Mon 04:25:03 PM 39.4875 -84.4919 45° Northeast 377 434 17,800 1,548 Climbing Indianapolis Center
Mon 04:26:05 PM 39.5639 -84.3925 45° Northeast 384 442 19,400 1,452 Climbing Indianapolis Center
Mon 04:27:07 PM 39.6533 -84.3031 38° Northeast 395 455 20,800 1,403 Climbing Indianapolis Center
Mon 04:28:09 PM 39.7442 -84.2106 38° Northeast 410 472 22,300 1,403 Climbing Indianapolis Center
Mon 04:29:11 PM 39.8367 -84.1147 38° Northeast 417 480 23,700 1,500 Climbing Indianapolis Center
Mon 04:30:13 PM 39.9406 -83.9867 43° Northeast 424 488 25,400 1,452 Climbing Indianapolis Center
Mon 04:31:15 PM 40.0275 -83.8778 44° Northeast 424 488 26,700 1,161 Climbing Indianapolis Center
Mon 04:32:17 PM 40.1156 -83.7678 44° Northeast 429 494 27,800 1,016 Climbing Indianapolis Center
Mon 04:33:19 PM 40.2058 -83.6550 44° Northeast 436 502 28,800 968 Climbing Indianapolis Center
Mon 04:34:21 PM 40.2936 -83.5419 44° Northeast 442 509 29,800 919 Climbing Indianapolis Center
Mon 04:35:23 PM 40.3850 -83.4275 44° Northeast 447 514 30,700 871 Climbing Indianapolis Center
Mon 04:36:25 PM 40.4747 -83.3128 44° Northeast 448 516 31,600 871 Climbing Indianapolis Center
Mon 04:37:27 PM 40.5844 -83.1717 44° Northeast 454 522 32,500 774 Climbing Indianapolis Center
Mon 04:38:29 PM 40.6781 -83.0536 44° Northeast 457 526 33,200 672 Climbing Indianapolis Center
Mon 04:39:32 PM 40.7714 -82.9331 44° Northeast 460 529 33,900 629 Climbing Indianapolis Center
Mon 04:40:33 PM 40.8647 -82.8106 45° Northeast 465 535 34,500 738 Climbing Indianapolis Center
Mon 04:41:42 PM 40.9744 -82.6683 44° Northeast 468 539 35,500 824 Climbing Cleveland Center
Mon 04:42:44 PM 41.0669 -82.5464 45° Northeast 467 537 36,300 726 Climbing Cleveland Center
Mon 04:43:46 PM 41.1597 -82.4247 45° Northeast 467 537 37,000 677 Climbing Cleveland Center
Mon 04:44:48 PM 41.2506 -82.3069 44° Northeast 455 524 37,700 532 Climbing Cleveland Center
Mon 04:45:50 PM 41.3364 -82.1825 47° Northeast 454 522 38,100 290 Climbing Cleveland Center
Mon 04:46:52 PM 41.3828 -82.0094 70° East 459 528 38,300 242 Climbing Cleveland Center
Mon 04:47:54 PM 41.4097 -81.8531 77° East 459 528 38,600 290 Climbing Cleveland Center
Mon 04:48:56 PM 41.4383 -81.6767 78° East 468 539 38,900 194 Climbing Cleveland Center
Mon 04:49:58 PM 41.4661 -81.5000 78° East 470 541 39,000 32 Climbing Cleveland Center
Mon 04:52:02 PM 41.5122 -81.1181 81° East 478 550 39,000  Level Cleveland Center
Mon 04:53:04 PM 41.5042 -80.9369 93° East 480 552 39,000  Level Cleveland Center
Mon 04:54:06 PM 41.5131 -80.7528 86° East 490 564 39,000  Level Cleveland Center
Mon 04:55:08 PM 41.5222 -80.5706 86° East 491 565 39,000  Level Cleveland Center
Mon 04:56:10 PM 41.5414 -80.3894 82° East 490 564 39,000  Level Cleveland Center
Mon 04:57:12 PM 41.5600 -80.2164 82° East 490 564 39,000  Level Cleveland Center
Mon 04:58:14 PM 41.5800 -80.0344 82° East 491 565 39,000  Level Cleveland Center
Mon 04:59:15 PM 41.6086 -79.8214 80° East 489 563 39,000  Level Cleveland Center
Mon 05:00:17 PM 41.6286 -79.6467 81° East 486 559 39,000  Level Cleveland Center
Mon 05:01:19 PM 41.6400 -79.4694 85° East 484 557 39,000  Level Cleveland Center
Mon 05:02:21 PM 41.6378 -79.2942 91° East 479 551 39,000  Level Cleveland Center
Mon 05:03:23 PM 41.6281 -79.1208 94° East 469 540 39,000 -387 Level Cleveland Center
Mon 05:04:25 PM 41.6100 -78.9458 98° East 476 548 38,200 -968 Descending Cleveland Center
Mon 05:05:27 PM 41.5767 -78.7339 102° East 484 557 37,000 -1,113 Descending Cleveland Center
Mon 05:06:29 PM 41.5231 -78.5756 114° Southeast 473 544 35,900 -968 Descending Cleveland Center
Mon 05:07:31 PM 41.4392 -78.4525 132° Southeast 456 525 35,000 -532 Descending Cleveland Center
Mon 05:08:33 PM 41.3475 -78.3267 134° Southeast 457 526 34,800 -532 Descending Cleveland Center
Mon 05:09:35 PM 41.2589 -78.1997 133° Southeast 469 540 33,900 -871 Descending Cleveland Center
Mon 05:10:37 PM 41.2025 -78.0372 115° Southeast 483 556 33,000 -435 Descending Cleveland Center
Mon 05:11:39 PM 41.1803 -77.8619 100° East 486 559 33,000 -581 Level Cleveland Center
Mon 05:12:41 PM 41.1522 -77.6475 100° East 490 564 31,800 -1,463 Descending Cleveland Center
Mon 05:13:42 PM 41.1300 -77.4694 99° East 491 565 30,000 -1,756 Descending Cleveland Center
Mon 05:14:44 PM 41.1081 -77.2947 99° East 489 563 28,200 -1,826 Descending Cleveland Center
Mon 05:15:14 PM 41.0911 -77.1969 103° East 482 555 27,200 -1,867 Descending New York Center
Mon 05:16:14 PM 41.0692 -77.0269 100° East 476 548 25,400 -1,700 Descending New York Center
Mon 05:17:14 PM 41.0467 -76.8569 100° East 469 540 23,800 -1,600 Descending New York Center
Mon 05:18:14 PM 41.0236 -76.6925 100° East 469 540 22,200 -1,600 Descending New York Center
Mon 05:19:14 PM 40.9900 -76.5331 106° East 463 533 20,600 -1,600 Descending New York Center
Mon 05:20:14 PM 40.9553 -76.3844 107° East 439 505 19,000 -1,500 Descending New York Center
Mon 05:21:14 PM 40.9219 -76.2497 108° East 424 488 17,600 -1,400 Descending New York Center
Mon 05:22:14 PM 40.8869 -76.1042 108° East 419 482 16,200 -1,500 Descending New York Center
Mon 05:23:14 PM 40.8483 -75.9422 107° East 413 475 14,600 -1,500 Descending New York Center
Mon 05:24:14 PM 40.8147 -75.8053 108° East 403 464 13,200 -800 Descending New York Center
Mon 05:25:14 PM 40.7808 -75.6683 108° East 393 452 13,000 -100 Descending New York Center
Mon 05:26:14 PM 40.7467 -75.5344 109° East 388 447 13,000 -400 Level New York Center
Mon 05:27:14 PM 40.7183 -75.4119 107° East 388 447 12,200 -900 Descending New York Center
Mon 05:28:14 PM 40.6903 -75.2733 105° East 388 447 11,200 -1,050 Descending New York Center
Mon 05:29:14 PM 40.6539 -75.1342 109° East 381 438 10,100 -600 Descending New York Center
Mon 05:30:14 PM 40.5906 -75.0425 132° Southeast 371 427 10,000 -50 Descending New York Center
Mon 05:31:14 PM 40.5447 -74.9250 117° Southeast 371 427 10,000  Level New York Center
Mon 05:32:14 PM 40.5094 -74.8056 111° Southeast 335 386 10,000  Level New York Center
Mon 05:33:14 PM 40.4772 -74.7108 114° Southeast 314 361 10,000 58 Level New York Center
Mon 05:33:58 PM 40.4500 -74.6167 111° Southeast 312 359 10,100  Climbing New York TRACON
Mon 05:34:58 PM 40.4333 -74.5167 102° East 310 357 10,000 -850 Descending New York TRACON
Mon 05:35:58 PM 40.4667 -74.4167 66° East 288 331 8,400 -1,450 Descending New York TRACON
Mon 05:36:58 PM 40.4833 -74.3167 78° East 283 326 7,100 -650 Descending New York TRACON
Mon 05:37:58 PM 40.5167 -74.2167 66° East 289 333 7,100 -650 Level New York TRACON
Mon 05:38:58 PM 40.5333 -74.1167 78° East 278 320 5,800 -1,579 Descending New York TRACON
Mon 05:39:52 PM 40.5833 -74.0500 45° Northeast 282 325 4,100 -895 Descending New York TRACON
Mon 05:40:52 PM 40.6500 -74.0333 11° North 274 315 4,100 -150 Level New York TRACON
Mon 05:41:52 PM 40.7333 -74.0167 North 272 313 3,800 -500 Descending New York TRACON
Mon 05:42:52 PM 40.8000 -73.9833 21° North 275 316 3,100 -350 Descending New York TRACON
Mon 05:43:52 PM 40.8667 -73.9333 30° Northeast 274 315 3,100  Level New York TRACON
Mon 05:44:52 PM 40.9167 -73.9000 27° Northeast 203 234 3,100  Level New York TRACON
Mon 05:45:46 PM 40.9333 -73.8500 66° East 209 241 3,100  Level New York TRACON
Mon 05:46:46 PM 40.9167 -73.7833 108° East 187 215 3,100 -300 Level New York TRACON
Mon 05:47:46 PM 40.8833 -73.7833 180° South 165 190 2,500 -750 Descending New York TRACON
Mon 05:48:46 PM 40.8500 -73.8167 217° Southwest 147 169 1,600 -810 Descending New York TRACON
Mon 05:49:52 PM 40.8167 -73.8500 217° Southwest 135 155 800 -727 Descending New York TRACON
Mon 05:51:00 PM 40.7772 -73.8726 208° Southwest  Level Estimated
Mon 05:58:00 PM 40.7772 -73.8726 208° Southwest  Level Estimated
Mon 05:59:00 PM 40.7772 -73.8726 285° West  Level Estimated

Login

Don't have an account? Register now (free) for customized features, flight alerts, and more!